TimeAKST,TemperatureF,Dew PointF,Humidity,Sea Level PressureIn,VisibilityMPH,Wind Direction,Wind SpeedMPH,Gust SpeedMPH,PrecipitationIn,Events,Conditions,WindDirDegrees,DateUTC
12:39 AM,15.8,8.6,73,29.37,2.5,NE,5.8,-,0.00,Snow,Light Snow,50,2012-01-30 09:39:00
12:53 AM,16.0,9.0,74,29.37,2.5,NE,5.8,-,0.00,Snow,Light Snow,40,2012-01-30 09:53:00
1:37 AM,15.8,10.4,79,29.37,3.0,NE,4.6,-,0.00,Snow,Light Snow,40,2012-01-30 10:37:00
1:53 AM,16.0,10.9,81,29.38,2.5,NE,4.6,-,0.00,Snow,Light Snow,50,2012-01-30 10:53:00
3:03 AM,15.8,12.2,86,29.39,2.0,NNE,4.6,-,0.00,Snow,Light Snow,30,2012-01-30 12:03:00
3:15 AM,15.8,12.2,86,29.39,1.8,NE,4.6,-,0.00,Snow,Light Snow,50,2012-01-30 12:15:00
3:53 AM,16.0,12.9,88,29.39,1.8,Calm,Calm,-,0.00,Snow,Light Snow,0,2012-01-30 12:53:00
4:08 AM,15.8,14.0,93,29.39,1.5,NE,3.5,-,0.01,Snow,Light Snow,40,2012-01-30 13:08:00
4:29 AM,17.6,14.0,86,29.39,2.0,Calm,Calm,-,0.01,Snow,Light Snow,0,2012-01-30 13:29:00
4:53 AM,17.1,14.0,88,29.40,1.8,NNE,3.5,-,0.01,Snow,Light Snow,20,2012-01-30 13:53:00
5:06 AM,17.6,14.0,86,29.40,1.2,Calm,Calm,-,0.00,Snow,Light Snow,0,2012-01-30 14:06:00
5:11 AM,17.6,14.0,86,29.40,1.5,Calm,Calm,-,0.00,Snow,Light Snow,0,2012-01-30 14:11:00
5:34 AM,17.6,14.0,86,29.40,1.5,NE,3.5,-,0.01,Snow,Light Snow,40,2012-01-30 14:34:00
5:53 AM,17.1,15.1,92,29.40,1.5,NNE,3.5,-,0.01,Snow,Light Snow,30,2012-01-30 14:53:00
6:22 AM,17.6,15.8,93,29.40,2.0,Calm,Calm,-,0.00,Snow,Light Snow,0,2012-01-30 15:22:00
6:31 AM,17.6,15.8,93,29.40,1.8,NNE,3.5,-,0.00,Snow,Light Snow,30,2012-01-30 15:31:00
6:42 AM,17.6,15.8,93,29.40,1.8,NE,3.5,-,0.01,Snow,Light Snow,40,2012-01-30 15:42:00
6:53 AM,18.0,15.1,88,29.40,2.0,Calm,Calm,-,0.01,Snow,Light Snow,0,2012-01-30 15:53:00
7:03 AM,17.6,15.8,93,29.40,3.0,NNE,3.5,-,0.00,Snow,Light Snow,30,2012-01-30 16:03:00
7:35 AM,17.6,15.8,93,29.40,3.0,NE,3.5,-,0.00,Snow,Light Snow,40,2012-01-30 16:35:00
7:53 AM,18.0,16.0,92,29.40,4.0,NE,3.5,-,0.00,Snow,Light Snow,50,2012-01-30 16:53:00
8:28 AM,19.4,15.8,86,29.40,4.0,Variable,3.5,-,0.00,Snow,Light Snow,0,2012-01-30 17:28:00
8:53 AM,19.0,16.0,88,29.40,2.5,NE,3.5,-,0.00,Snow,Light Snow,50,2012-01-30 17:53:00
9:53 AM,19.9,17.1,89,29.39,2.0,NE,3.5,-,0.00,Snow,Light Snow,50,2012-01-30 18:53:00
10:02 AM,19.4,17.6,93,29.39,1.5,NE,3.5,-,0.00,Snow,Light Snow,50,2012-01-30 19:02:00
10:13 AM,19.4,17.6,93,29.39,1.2,NE,3.5,-,0.00,Snow,Light Snow,40,2012-01-30 19:13:00
10:30 AM,19.4,17.6,93,29.39,2.0,NNE,4.6,-,0.00,Snow,Light Snow,20,2012-01-30 19:30:00
10:40 AM,19.4,17.6,93,29.39,4.0,Calm,Calm,-,0.00,Snow,Light Snow,0,2012-01-30 19:40:00
10:53 AM,21.0,19.0,92,29.38,4.0,NNE,3.5,-,0.00,Snow,Light Snow,30,2012-01-30 19:53:00
11:17 AM,21.2,19.4,93,29.37,2.5,NNE,3.5,-,0.00,Snow,Light Snow,20,2012-01-30 20:17:00
11:24 AM,21.2,19.4,93,29.37,3.0,Calm,Calm,-,0.00,Snow,Light Snow,0,2012-01-30 20:24:00
11:34 AM,21.2,19.4,93,29.37,4.0,ENE,3.5,-,0.00,Snow,Light Snow,60,2012-01-30 20:34:00
11:53 AM,21.9,19.0,89,29.37,4.0,Calm,Calm,-,0.00,Snow,Light Snow,0,2012-01-30 20:53:00
12:38 PM,23.0,19.4,86,29.35,6.0,Calm,Calm,-,0.00,Snow,Light Snow,0,2012-01-30 21:38:00
12:53 PM,23.0,21.0,92,29.34,9.0,Calm,Calm,-,0.00,,Mostly Cloudy,0,2012-01-30 21:53:00
1:53 PM,24.1,21.0,88,29.31,10.0,Calm,Calm,-,N/A,,Overcast,0,2012-01-30 22:53:00
2:53 PM,24.1,21.0,88,29.30,9.0,NE,5.8,-,0.00,,Overcast,40,2012-01-30 23:53:00
3:53 PM,25.0,23.0,92,29.29,10.0,Calm,Calm,-,N/A,,Overcast,0,2012-01-31 00:53:00
4:53 PM,25.0,23.0,92,29.30,6.0,Calm,Calm,-,0.00,Snow,Light Snow,0,2012-01-31 01:53:00
5:00 PM,24.8,24.8,100,29.29,4.0,Calm,Calm,-,0.00,Snow,Light Snow,0,2012-01-31 02:00:00
5:12 PM,26.6,23.0,86,29.29,1.8,NNE,3.5,-,0.00,Snow,Light Snow,30,2012-01-31 02:12:00
5:24 PM,26.6,24.8,93,29.29,2.5,Calm,Calm,-,0.00,Snow,Light Snow,0,2012-01-31 02:24:00
5:45 PM,26.6,24.8,93,29.29,7.0,NE,3.5,-,0.00,Snow,Light Snow,40,2012-01-31 02:45:00
5:53 PM,25.0,24.1,96,29.29,4.0,Calm,Calm,-,0.01,Snow,Light Snow,0,2012-01-31 02:53:00
6:04 PM,26.6,24.8,93,29.29,2.5,Calm,Calm,-,0.00,Snow,Light Snow,0,2012-01-31 03:04:00
6:12 PM,26.6,24.8,93,29.28,1.8,Calm,Calm,-,0.00,Snow,Light Snow,0,2012-01-31 03:12:00
6:25 PM,26.6,24.8,93,29.29,2.0,Calm,Calm,-,0.00,Snow,Light Snow,0,2012-01-31 03:25:00
6:29 PM,26.6,24.8,93,29.28,1.8,Calm,Calm,-,0.00,Snow,Light Snow,0,2012-01-31 03:29:00
6:40 PM,26.6,23.0,86,29.28,2.0,NE,4.6,-,0.00,Snow,Light Snow,50,2012-01-31 03:40:00
6:53 PM,26.1,24.1,92,29.29,3.0,NE,4.6,-,0.01,Snow,Light Snow,40,2012-01-31 03:53:00
7:04 PM,26.6,24.8,93,29.28,3.0,North,3.5,-,0.00,Snow,Light Snow,10,2012-01-31 04:04:00
7:44 PM,26.6,24.8,93,29.28,7.0,Calm,Calm,-,0.00,Snow,Light Snow,0,2012-01-31 04:44:00
7:53 PM,27.0,24.1,89,29.28,4.0,NE,3.5,-,0.00,Snow,Light Snow,40,2012-01-31 04:53:00
8:37 PM,26.6,23.0,86,29.28,6.0,ENE,4.6,-,0.00,Snow,Light Snow,70,2012-01-31 05:37:00
8:44 PM,26.6,23.0,86,29.27,7.0,Calm,Calm,-,0.00,Snow,Light Snow,0,2012-01-31 05:44:00
8:53 PM,27.0,23.0,85,29.28,8.0,Calm,Calm,-,0.00,Snow,Light Snow,0,2012-01-31 05:53:00
9:46 PM,26.6,21.2,80,29.27,6.0,Calm,Calm,-,0.00,Snow,Light Snow,0,2012-01-31 06:46:00
9:53 PM,26.6,21.2,80,29.27,3.0,Calm,Calm,-,N/A,Snow,Light Snow,0,2012-01-31 06:53:00
10:44 PM,26.6,23.0,86,29.27,4.0,Calm,Calm,-,0.00,Snow,Light Snow,0,2012-01-31 07:44:00
10:53 PM,26.1,24.1,92,29.27,3.0,Calm,Calm,-,0.00,Snow,Light Snow,0,2012-01-31 07:53:00
11:38 PM,26.6,24.8,93,29.26,2.5,Calm,Calm,-,0.00,Snow,Light Snow,0,2012-01-31 08:38:00
11:53 PM,27.0,24.1,89,29.26,1.8,Calm,Calm,-,0.00,Snow,Light Snow,0,2012-01-31 08:53:00